• In Germany
  • List of Countries
  • For 7 days
  • Water Temperature
  • Satellite Maps
  • Weather Map
  • Weather Widgets
  • user-avatar
    Login

    Hourly Weather Durres

    Today, 23 April, Sunday

    Time Temperature Precipitation Wind Pressure Humidity
    00:00 +6°C° 0 mm 2 mps 762 mmHg 74%
    01:00 +5°C° 0 mm 2 mps 762 mmHg 72%
    02:00 +5°C° 0 mm 2 mps 762 mmHg 71%
    03:00 +5°C° 0 mm 2 mps 762 mmHg 70%
    04:00 +6°C° 0 mm 1 mps 761 mmHg 69%
    05:00 +7°C° 0 mm 2 mps 762 mmHg 62%
    06:00 +9°C° 0 mm 2 mps 762 mmHg 56%
    07:00 +13°C° 0 mm 2 mps 761 mmHg 48%
    08:00 +14°C° 0 mm 2 mps 761 mmHg 47%
    09:00 +15°C° 0 mm 2 mps 762 mmHg 46%
    10:00 +17°C° 0 mm 2 mps 762 mmHg 45%
    11:00 +17°C° 0 mm 2 mps 762 mmHg 46%
    12:00 +18°C° 0 mm 3 mps 762 mmHg 46%
    13:00 +19°C° 0 mm 3 mps 762 mmHg 46%
    14:00 +18°C° 0 mm 3 mps 762 mmHg 48%
    15:00 +18°C° 0 mm 3 mps 762 mmHg 49%
    16:00 +17°C° 0 mm 2 mps 762 mmHg 51%
    17:00 +15°C° 0 mm 2 mps 763 mmHg 61%
    18:00 +13°C° 0 mm 2 mps 763 mmHg 70%
    19:00 +10°C° 0 mm 2 mps 763 mmHg 80%
    20:00 +9°C° 0 mm 2 mps 764 mmHg 80%
    21:00 +9°C° 0 mm 2 mps 764 mmHg 80%
    22:00 +9°C° 0 mm 2 mps 765 mmHg 79%
    23:00 +9°C° 0 mm 2 mps 765 mmHg 79%

    Tomorrow, 24 April, Monday

    Time Temperature Precipitation Wind Pressure Humidity
    00:00 +8°C° 0 mm 2 mps 765 mmHg 78%
    01:00 +8°C° 0 mm 3 mps 765 mmHg 78%
    02:00 +8°C° 0 mm 3 mps 765 mmHg 76%
    03:00 +8°C° 0 mm 3 mps 765 mmHg 75%
    04:00 +8°C° 0 mm 3 mps 764 mmHg 73%
    05:00 +10°C° 0 mm 3 mps 765 mmHg 68%
    06:00 +12°C° 0 mm 3 mps 765 mmHg 64%
    07:00 +14°C° 0 mm 3 mps 765 mmHg 59%
    08:00 +17°C° 0 mm 3 mps 765 mmHg 54%
    09:00 +19°C° 0 mm 2 mps 765 mmHg 49%
    10:00 +20°C° 0 mm 2 mps 765 mmHg 43%
    11:00 +21°C° 0 mm 2 mps 765 mmHg 43%
    12:00 +21°C° 0 mm 2 mps 765 mmHg 43%
    13:00 +21°C° 0 mm 3 mps 765 mmHg 43%
    14:00 +21°C° 0 mm 3 mps 764 mmHg 46%
    15:00 +20°C° 0 mm 3 mps 764 mmHg 49%
    16:00 +20°C° 0 mm 3 mps 764 mmHg 52%
    17:00 +17°C° 0 mm 2 mps 764 mmHg 63%
    18:00 +15°C° 0 mm 2 mps 764 mmHg 74%
    19:00 +12°C° 0 mm 2 mps 764 mmHg 85%
    20:00 +12°C° 0 mm 2 mps 764 mmHg 85%
    21:00 +11°C° 0 mm 3 mps 764 mmHg 85%
    22:00 +11°C° 0 mm 3 mps 764 mmHg 85%
    23:00 +10°C° 0 mm 3 mps 764 mmHg 85%

    Day after tomorrow, 25 April, Tuesday

    Time Temperature Precipitation Wind Pressure Humidity
    00:00 +10°C° 0 mm 4 mps 764 mmHg 85%
    01:00 +10°C° 0 mm 4 mps 764 mmHg 85%
    02:00 +10°C° 0 mm 4 mps 764 mmHg 86%
    03:00 +10°C° 0 mm 4 mps 764 mmHg 86%
    04:00 +8°C° 0 mm 4 mps 763 mmHg 86%
    05:00 +11°C° 0 mm 4 mps 763 mmHg 79%
    06:00 +13°C° 0 mm 4 mps 763 mmHg 72%
    07:00 +15°C° 0 mm 5 mps 763 mmHg 64%
    08:00 +17°C° 0 mm 5 mps 763 mmHg 57%
    09:00 +19°C° 0 mm 5 mps 763 mmHg 51%
    10:00 +21°C° 0 mm 5 mps 763 mmHg 44%
    11:00 +21°C° 0 mm 6 mps 763 mmHg 42%
    12:00 +22°C° 0 mm 6 mps 763 mmHg 41%
    13:00 +22°C° 0 mm 7 mps 763 mmHg 40%
    14:00 +21°C° 0 mm 7 mps 762 mmHg 43%
    15:00 +21°C° 0 mm 7 mps 762 mmHg 47%
    16:00 +20°C° 0 mm 7 mps 762 mmHg 50%
    17:00 +17°C° 0 mm 6 mps 762 mmHg 60%
    18:00 +15°C° 0 mm 6 mps 762 mmHg 69%
    19:00 +13°C° 0 mm 5 mps 762 mmHg 78%
    20:00 +12°C° 0 mm 5 mps 762 mmHg 80%
    21:00 +12°C° 0 mm 5 mps 762 mmHg 82%
    22:00 +10°C° 0 mm 5 mps 763 mmHg 84%
    23:00 +11°C° 0 mm 4 mps 762 mmHg 83%

    26 April, Wednesday

    Time Temperature Precipitation Wind Pressure Humidity
    00:00 +11°C° 0 mm 4 mps 762 mmHg 83%
    01:00 +11°C° 0 mm 4 mps 762 mmHg 82%
    02:00 +10°C° 0 mm 4 mps 762 mmHg 80%
    03:00 +10°C° 0 mm 4 mps 762 mmHg 78%
    04:00 +10°C° 0 mm 4 mps 761 mmHg 76%
    05:00 +12°C° 0 mm 4 mps 761 mmHg 69%
    06:00 +14°C° 0 mm 4 mps 761 mmHg 63%
    07:00 +15°C° 0 mm 4 mps 761 mmHg 57%
    08:00 +18°C° 0 mm 4 mps 761 mmHg 48%
    09:00 +20°C° 0 mm 4 mps 761 mmHg 39%
    10:00 +22°C° 0 mm 4 mps 761 mmHg 31%
    11:00 +23°C° 0 mm 5 mps 761 mmHg 30%
    12:00 +23°C° 0 mm 6 mps 760 mmHg 30%
    13:00 +24°C° 0 mm 7 mps 760 mmHg 30%
    14:00 +23°C° 0 mm 7 mps 760 mmHg 33%
    15:00 +23°C° 0 mm 7 mps 760 mmHg 36%
    16:00 +22°C° 0 mm 7 mps 759 mmHg 40%
    17:00 +20°C° 0 mm 6 mps 760 mmHg 48%
    18:00 +17°C° 0 mm 6 mps 760 mmHg 57%
    19:00 +15°C° 0 mm 5 mps 760 mmHg 65%
    20:00 +14°C° 0 mm 5 mps 760 mmHg 66%
    21:00 +14°C° 0 mm 5 mps 760 mmHg 67%
    22:00 +13°C° 0 mm 4 mps 761 mmHg 68%
    23:00 +13°C° 0 mm 4 mps 761 mmHg 66%

    27 April, Thursday

    Time Temperature Precipitation Wind Pressure Humidity
    00:00 +13°C° 0 mm 5 mps 760 mmHg 64%
    01:00 +14°C° 0 mm 5 mps 760 mmHg 62%
    02:00 +14°C° 0 mm 5 mps 760 mmHg 61%
    03:00 +14°C° 0 mm 5 mps 760 mmHg 60%
    04:00 +13°C° 0 mm 5 mps 760 mmHg 59%
    05:00 +15°C° 0 mm 5 mps 760 mmHg 56%
    06:00 +17°C° 0 mm 5 mps 759 mmHg 53%
    07:00 +19°C° 0 mm 5 mps 759 mmHg 51%
    08:00 +21°C° 0 mm 5 mps 759 mmHg 45%
    09:00 +23°C° 0 mm 5 mps 759 mmHg 39%
    10:00 +26°C° 0 mm 5 mps 759 mmHg 33%
    11:00 +26°C° 0 mm 6 mps 759 mmHg 34%
    12:00 +27°C° 0 mm 7 mps 758 mmHg 34%
    13:00 +27°C° 0 mm 8 mps 758 mmHg 34%
    14:00 +26°C° 0 mm 8 mps 758 mmHg 36%
    15:00 +26°C° 0 mm 8 mps 758 mmHg 37%
    16:00 +24°C° 0 mm 8 mps 758 mmHg 39%
    17:00 +22°C° 0 mm 7 mps 758 mmHg 46%
    18:00 +18°C° 0 mm 7 mps 758 mmHg 53%
    19:00 +16°C° 0 mm 6 mps 758 mmHg 59%
    20:00 +16°C° 0 mm 6 mps 758 mmHg 59%
    21:00 +16°C° 0 mm 5 mps 758 mmHg 58%
    22:00 +17°C° 0 mm 4 mps 758 mmHg 58%
    23:00 +17°C° 0 mm 4 mps 758 mmHg 58%

    28 April, Friday

    Time Temperature Precipitation Wind Pressure Humidity
    00:00 +17°C° 0 mm 4 mps 758 mmHg 58%
    01:00 +15°C° 0 mm 4 mps 758 mmHg 58%
    02:00 +15°C° 0.1 mm 5 mps 757 mmHg 58%
    03:00 +15°C° 0.1 mm 5 mps 757 mmHg 58%
    04:00 +14°C° 0.1 mm 5 mps 757 mmHg 58%
    05:00 +15°C° 0.5 mm 5 mps 757 mmHg 58%
    06:00 +16°C° 0.5 mm 6 mps 758 mmHg 57%
    07:00 +17°C° 0.5 mm 6 mps 758 mmHg 57%
    08:00 +19°C° 0.4 mm 6 mps 757 mmHg 55%
    09:00 +19°C° 0.4 mm 5 mps 757 mmHg 54%
    10:00 +20°C° 0.4 mm 5 mps 757 mmHg 53%
    11:00 +20°C° 0.8 mm 6 mps 757 mmHg 53%
    12:00 +21°C° 0.8 mm 6 mps 757 mmHg 53%
    13:00 +21°C° 0.8 mm 7 mps 757 mmHg 53%
    14:00 +20°C° 2.5 mm 6 mps 757 mmHg 57%
    15:00 +20°C° 2.5 mm 6 mps 757 mmHg 61%
    16:00 +19°C° 2.5 mm 5 mps 757 mmHg 65%
    17:00 +17°C° 2.2 mm 5 mps 757 mmHg 72%
    18:00 +17°C° 2.2 mm 4 mps 757 mmHg 78%
    19:00 +15°C° 2.2 mm 4 mps 757 mmHg 84%
    20:00 +15°C° 2 mm 4 mps 757 mmHg 86%
    21:00 +14°C° 2 mm 3 mps 757 mmHg 88%
    22:00 +14°C° 2 mm 3 mps 757 mmHg 91%
    23:00 +14°C° 2 mm 3 mps 757 mmHg 92%
    Show more